When you browse on this site, cookies collect data to enhance your experience and personalize the content and advertising you see.
Visit our Privacy Policy to learn more. By continuing to use the site, you agree to this use of cookies and data.
  • în România
  • Lista ţărilor
  • Pe 7 zile
  • Temperatura apei
  • Meteo pe hartă
  • Widget-uri
  • user-avatar
    Intrare

    Meteo pe oră la Szeged

    Astăzi, 15 Decembrie, Duminică

    Timp Temperatura Precipitaţii Vânt Presiune Umiditate
    00:00 +3°C° 0 mm 3 m/s 752 mmHg 83%
    01:00 +3°C° 0 mm 2 m/s 752 mmHg 83%
    02:00 +3°C° 0 mm 2 m/s 753 mmHg 83%
    03:00 +2°C° 0 mm 3 m/s 753 mmHg 82%
    04:00 +2°C° 0 mm 3 m/s 753 mmHg 82%
    05:00 +2°C° 0 mm 3 m/s 753 mmHg 84%
    06:00 +2°C° 0 mm 3 m/s 754 mmHg 85%
    07:00 +2°C° 0 mm 3 m/s 754 mmHg 87%
    08:00 +3°C° 0 mm 3 m/s 754 mmHg 82%
    09:00 +5°C° 0 mm 4 m/s 754 mmHg 77%
    10:00 +6°C° 0 mm 5 m/s 754 mmHg 71%
    11:00 +7°C° 0 mm 5 m/s 754 mmHg 65%
    12:00 +10°C° 0 mm 4 m/s 754 mmHg 59%
    13:00 +11°C° 0 mm 3 m/s 754 mmHg 55%
    14:00 +10°C° 0 mm 3 m/s 754 mmHg 59%
    15:00 +9°C° 0 mm 3 m/s 754 mmHg 62%
    16:00 +8°C° 0 mm 3 m/s 754 mmHg 65%
    17:00 +8°C° 0 mm 3 m/s 755 mmHg 64%
    18:00 +8°C° 0 mm 3 m/s 755 mmHg 63%
    19:00 +7°C° 0 mm 4 m/s 755 mmHg 63%
    20:00 +7°C° 0 mm 4 m/s 755 mmHg 63%
    21:00 +7°C° 0 mm 4 m/s 756 mmHg 63%
    22:00 +7°C° 0 mm 4 m/s 756 mmHg 63%
    23:00 +8°C° 0 mm 3 m/s 756 mmHg 64%

    Mâine, 16 Decembrie, Luni

    Timp Temperatura Precipitaţii Vânt Presiune Umiditate
    00:00 +7°C° 0 mm 3 m/s 756 mmHg 65%
    01:00 +7°C° 0 mm 3 m/s 757 mmHg 66%
    02:00 +7°C° 0 mm 3 m/s 757 mmHg 67%
    03:00 +7°C° 0 mm 3 m/s 757 mmHg 68%
    04:00 +5°C° 0 mm 3 m/s 757 mmHg 69%
    05:00 +5°C° 0 mm 3 m/s 757 mmHg 69%
    06:00 +6°C° 0 mm 2 m/s 758 mmHg 69%
    07:00 +6°C° 0 mm 2 m/s 758 mmHg 69%
    08:00 +7°C° 0 mm 2 m/s 758 mmHg 67%
    09:00 +8°C° 0 mm 3 m/s 758 mmHg 64%
    10:00 +9°C° 0 mm 3 m/s 759 mmHg 61%
    11:00 +9°C° 0 mm 3 m/s 758 mmHg 59%
    12:00 +10°C° 0 mm 3 m/s 758 mmHg 58%
    13:00 +11°C° 0 mm 3 m/s 758 mmHg 56%
    14:00 +10°C° 0 mm 3 m/s 757 mmHg 59%
    15:00 +9°C° 0 mm 3 m/s 757 mmHg 62%
    16:00 +8°C° 0 mm 3 m/s 757 mmHg 66%
    17:00 +8°C° 0 mm 3 m/s 757 mmHg 66%
    18:00 +8°C° 0 mm 3 m/s 757 mmHg 66%
    19:00 +7°C° 0 mm 3 m/s 757 mmHg 67%
    20:00 +7°C° 0 mm 3 m/s 757 mmHg 66%
    21:00 +7°C° 0 mm 3 m/s 757 mmHg 65%
    22:00 +7°C° 0 mm 3 m/s 757 mmHg 64%
    23:00 +7°C° 0 mm 3 m/s 757 mmHg 66%

    Poimâine, 17 Decembrie, Marţi

    Timp Temperatura Precipitaţii Vânt Presiune Umiditate
    00:00 +7°C° 0 mm 3 m/s 757 mmHg 67%
    01:00 +5°C° 0 mm 3 m/s 757 mmHg 69%
    02:00 +5°C° 0 mm 3 m/s 757 mmHg 70%
    03:00 +5°C° 0 mm 3 m/s 757 mmHg 71%
    04:00 +5°C° 0 mm 3 m/s 757 mmHg 72%
    05:00 +5°C° 0 mm 3 m/s 757 mmHg 75%
    06:00 +5°C° 0 mm 3 m/s 757 mmHg 77%
    07:00 +5°C° 0 mm 3 m/s 757 mmHg 79%
    08:00 +7°C° 0 mm 3 m/s 757 mmHg 76%
    09:00 +8°C° 0 mm 3 m/s 758 mmHg 73%
    10:00 +9°C° 0 mm 3 m/s 758 mmHg 69%
    11:00 +10°C° 0 mm 3 m/s 758 mmHg 66%
    12:00 +11°C° 0 mm 3 m/s 757 mmHg 63%
    13:00 +12°C° 0 mm 3 m/s 757 mmHg 60%
    14:00 +11°C° 0 mm 3 m/s 757 mmHg 64%
    15:00 +10°C° 0 mm 3 m/s 757 mmHg 68%
    16:00 +10°C° 0 mm 3 m/s 757 mmHg 72%
    17:00 +9°C° 0 mm 3 m/s 757 mmHg 73%
    18:00 +9°C° 0 mm 3 m/s 757 mmHg 74%
    19:00 +8°C° 0 mm 2 m/s 757 mmHg 74%
    20:00 +8°C° 0 mm 2 m/s 757 mmHg 74%
    21:00 +8°C° 0 mm 2 m/s 758 mmHg 73%
    22:00 +8°C° 0 mm 2 m/s 758 mmHg 73%
    23:00 +8°C° 0 mm 2 m/s 758 mmHg 73%

    18 Decembrie, Miercuri

    Timp Temperatura Precipitaţii Vânt Presiune Umiditate
    00:00 +7°C° 0 mm 2 m/s 757 mmHg 74%
    01:00 +7°C° 0 mm 2 m/s 757 mmHg 74%
    02:00 +7°C° 0 mm 2 m/s 757 mmHg 75%
    03:00 +7°C° 0 mm 2 m/s 757 mmHg 76%
    04:00 +6°C° 0 mm 2 m/s 757 mmHg 77%
    05:00 +6°C° 0 mm 2 m/s 757 mmHg 78%
    06:00 +6°C° 0 mm 2 m/s 757 mmHg 78%
    07:00 +6°C° 0 mm 2 m/s 757 mmHg 79%
    08:00 +7°C° 0 mm 2 m/s 757 mmHg 76%
    09:00 +8°C° 0 mm 2 m/s 758 mmHg 73%
    10:00 +9°C° 0 mm 2 m/s 758 mmHg 70%
    11:00 +9°C° 0 mm 2 m/s 758 mmHg 67%
    12:00 +10°C° 0 mm 2 m/s 757 mmHg 65%
    13:00 +12°C° 0 mm 2 m/s 757 mmHg 62%
    14:00 +10°C° 0 mm 2 m/s 757 mmHg 65%
    15:00 +9°C° 0 mm 2 m/s 757 mmHg 69%
    16:00 +9°C° 0 mm 2 m/s 757 mmHg 72%
    17:00 +8°C° 0 mm 2 m/s 757 mmHg 74%
    18:00 +8°C° 0 mm 2 m/s 757 mmHg 75%
    19:00 +8°C° 0 mm 2 m/s 757 mmHg 77%
    20:00 +8°C° 0 mm 3 m/s 757 mmHg 77%
    21:00 +8°C° 0 mm 3 m/s 757 mmHg 76%
    22:00 +8°C° 0 mm 3 m/s 757 mmHg 75%
    23:00 +8°C° 0 mm 3 m/s 757 mmHg 74%

    19 Decembrie, Joi

    Timp Temperatura Precipitaţii Vânt Presiune Umiditate
    00:00 +8°C° 0 mm 3 m/s 756 mmHg 73%
    01:00 +8°C° 0 mm 3 m/s 756 mmHg 71%
    02:00 +7°C° 0 mm 4 m/s 756 mmHg 70%
    03:00 +7°C° 0 mm 4 m/s 755 mmHg 69%
    04:00 +7°C° 0 mm 4 m/s 755 mmHg 68%
    05:00 +8°C° 0 mm 5 m/s 755 mmHg 67%
    06:00 +9°C° 0 mm 5 m/s 755 mmHg 65%
    07:00 +9°C° 0 mm 5 m/s 754 mmHg 64%
    08:00 +10°C° 0.1 mm 6 m/s 754 mmHg 63%
    09:00 +11°C° 0.1 mm 6 m/s 754 mmHg 62%
    10:00 +11°C° 0.1 mm 7 m/s 754 mmHg 61%
    11:00 +14°C° 0 mm 6 m/s 754 mmHg 57%
    12:00 +15°C° 0 mm 6 m/s 753 mmHg 53%
    13:00 +16°C° 0 mm 6 m/s 753 mmHg 49%
    14:00 +15°C° 0 mm 5 m/s 753 mmHg 53%
    15:00 +13°C° 0 mm 5 m/s 753 mmHg 57%
    16:00 +12°C° 0 mm 4 m/s 752 mmHg 62%
    17:00 +11°C° 0 mm 4 m/s 752 mmHg 65%
    18:00 +11°C° 0 mm 4 m/s 752 mmHg 68%
    19:00 +10°C° 0 mm 4 m/s 752 mmHg 71%
    20:00 +11°C° 0 mm 4 m/s 752 mmHg 71%
    21:00 +11°C° 0 mm 4 m/s 751 mmHg 70%
    22:00 +11°C° 0 mm 4 m/s 751 mmHg 70%
    23:00 +11°C° 0 mm 4 m/s 751 mmHg 70%

    20 Decembrie, Vineri

    Timp Temperatura Precipitaţii Vânt Presiune Umiditate
    00:00 +10°C° 0 mm 4 m/s 751 mmHg 69%
    01:00 +9°C° 0 mm 5 m/s 750 mmHg 69%
    02:00 +9°C° 0 mm 5 m/s 750 mmHg 70%
    03:00 +9°C° 0 mm 5 m/s 749 mmHg 72%
    04:00 +8°C° 0 mm 5 m/s 749 mmHg 73%
    05:00 +9°C° 0.6 mm 5 m/s 749 mmHg 77%
    06:00 +9°C° 0.6 mm 6 m/s 749 mmHg 82%
    07:00 +9°C° 0.6 mm 6 m/s 749 mmHg 86%
    08:00 +10°C° 0.2 mm 7 m/s 748 mmHg 83%
    09:00 +10°C° 0.2 mm 7 m/s 748 mmHg 80%
    10:00 +11°C° 0.2 mm 7 m/s 748 mmHg 76%
    11:00 +12°C° 0.1 mm 7 m/s 748 mmHg 69%
    12:00 +14°C° 0.1 mm 7 m/s 747 mmHg 62%
    13:00 +15°C° 0.1 mm 7 m/s 747 mmHg 56%
    14:00 +15°C° 0 mm 6 m/s 747 mmHg 58%
    15:00 +14°C° 0 mm 5 m/s 747 mmHg 60%
    16:00 +13°C° 0 mm 5 m/s 746 mmHg 62%
    17:00 +13°C° 0 mm 5 m/s 746 mmHg 64%
    18:00 +13°C° 0 mm 5 m/s 746 mmHg 66%
    19:00 +13°C° 0 mm 6 m/s 745 mmHg 68%
    20:00 +13°C° 0 mm 6 m/s 745 mmHg 68%
    21:00 +12°C° 0 mm 7 m/s 745 mmHg 68%
    22:00 +12°C° 0 mm 7 m/s 744 mmHg 68%
    23:00 +12°C° 0 mm 7 m/s 744 mmHg 68%
    Arată mai mult